Content
SEND FEEDBACK

Daily
Averages
Monthly
Summary
United States of America

MAURICEVILLE, TEXAS


Home > North America > United States > Texas
Elevation: 20 feet     Latitude: 30 14N     Longitude: 093 44W

WEATHER
 
SELECT A DAY
Number of Records: 115,423;   Date Range: 8/25/05 - 10/22/14
 
SHARE

PRINT THIS DATA

[ ← Previous Day ]
WEATHER ALMANAC - APRIL 3, 2013
[ Next Day → ]
[ °C ]   °F
Weather ElementAverageHighLow
Temperature54.7 °F65.3 °F (12:35 am)49.5 °F (11:55 pm)
Dewpoint51.3 °F62.1 °F (12:35 am)47.3 °F (11:35 pm)
Humidity88.5 %96 % (7:55 am)81 % (2:35 pm)
Barometer29.98 in30.10 in (10:55 pm)29.86 in (12:35 am)
Wind Speed9 mph15 mph (11:15 am)
Wind Gust21.9 mph (9:55 am)
Weather ElementAverage
Visibility9.4 mi
Wind DirectionSW (224 °)

Weather ElementTotal
Precipitation0.13 in
Heating Degree Days7.6 (Base 65)
Growing Degree Days7.4 (Base 50)
Averaged from 52 records on April 3, 2013
WEATHER CONDITIONS BREAKOUT
WIND DIRECTION BREAKOUT
WEATHER BY HOUR - APRIL 3, 2013
[ °C ]   °F
Local TimeTemperatureDewpointHumidityBarometerVisibilityWind DirectionWind SpeedGust SpeedPrecipitationEventsConditions
12:35 AM65.3 °F62.1 °F89 %29.86 in4.0 miEast (80°)12.7 mph17.3 mph0.07 inRain-ThunderstormHeavy Thunderstorms and Rain
7:15 AM58.1 °F56.3 °F94 %29.89 in10.0 miNorth (360°)5.8 mph
7:35 AM58.1 °F56.3 °F94 %29.91 in10.0 miNorth (360°)3.5 mphOvercast
7:55 AM58.5 °F57.2 °F96 %29.90 in10.0 miNorth (10°)4.6 mphOvercast
8:15 AM59.0 °F57.4 °F94 %29.90 in10.0 miNNE (30°)4.6 mphOvercast
8:35 AM59.2 °F57.9 °F96 %29.92 in10.0 miNorth (360°)3.5 mphOvercast
8:55 AM59.5 °F58.1 °F95 %29.92 in10.0 miNNW (330°)6.9 mphOvercast
9:15 AM58.3 °F56.8 °F95 %29.92 in4.0 miNW (320°)10.4 mphOvercast
9:35 AM57.2 °F55.8 °F95 %29.93 in1.8 miNNW (330°)11.5 mph18.4 mphOvercast
9:55 AM56.5 °F55.2 °F96 %29.94 in2.5 miNNW (330°)12.7 mph21.9 mphOvercast
10:15 AM56.3 °F54.5 °F94 %29.95 in5.0 miNNW (340°)11.5 mph19.6 mphOvercast
10:35 AM56.3 °F54.3 °F93 %29.97 in10.0 miNNW (340°)9.2 mph16.1 mphOvercast
10:55 AM56.3 °F53.8 °F91 %29.98 in10.0 miNNW (340°)10.4 mph16.1 mphOvercast
11:15 AM57.0 °F53.6 °F88 %29.99 in10.0 miNorth (350°)15.0 mph18.4 mphOvercast
11:35 AM56.3 °F53.1 °F89 %29.99 in10.0 miNorth (350°)11.5 mphOvercast
11:55 AM56.3 °F52.9 °F88 %29.99 in10.0 miNorth (350°)12.7 mph17.3 mphOvercast
12:15 PM56.3 °F52.2 °F86 %29.99 in10.0 miNorth (360°)12.7 mph17.3 mphOvercast
12:35 PM55.4 °F51.4 °F87 %29.99 in10.0 miNorth (360°)12.7 mph19.6 mphOvercast
12:55 PM54.9 °F51.4 °F88 %29.97 in10.0 miNorth (350°)13.8 mph18.4 mphOvercast
1:15 PM54.5 °F50.5 °F86 %29.97 in10.0 miNorth (10°)11.5 mph18.4 mphOvercast
1:35 PM54.7 °F50.4 °F85 %29.97 in10.0 miNNW (340°)12.7 mph17.3 mphOvercast
1:55 PM55.2 °F50.7 °F85 %29.96 in10.0 miNorth (10°)10.4 mphOvercast
2:15 PM55.9 °F50.9 °F83 %29.96 in10.0 miNorth (350°)9.2 mphOvercast
2:35 PM57.0 °F51.1 °F81 %29.96 in10.0 miNorth (360°)9.2 mph17.3 mphOvercast
2:55 PM56.5 °F50.9 °F82 %29.96 in10.0 miNNW (340°)13.8 mph18.4 mphOvercast
3:15 PM56.3 °F50.5 °F81 %29.96 in10.0 miNNW (340°)12.7 mph18.4 mphOvercast
3:35 PM55.8 °F50.7 °F83 %29.95 in10.0 miNNW (340°)13.8 mph20.7 mphOvercast
3:55 PM55.4 °F50.4 °F83 %29.95 in10.0 miNorth (350°)10.4 mph19.6 mphOvercast
4:15 PM55.8 °F50.4 °F82 %29.95 in10.0 miNorth (10°)13.8 mph20.7 mphOvercast
4:35 PM56.1 °F50.9 °F83 %29.95 in10.0 miNNW (340°)13.8 mph19.6 mphOvercast
4:55 PM55.2 °F50.2 °F83 %29.96 in10.0 miNNW (330°)12.7 mph18.4 mphOvercast
5:15 PM53.8 °F49.1 °F84 %29.95 in10.0 miNNW (340°)13.8 mph20.7 mphOvercast
5:35 PM53.4 °F48.9 °F85 %29.94 in10.0 miNorth (350°)12.7 mph18.4 mphOvercast
5:55 PM53.2 °F48.9 °F85 %29.93 in10.0 miNorth (360°)9.2 mph16.1 mphOvercast
6:15 PM53.1 °F48.7 °F85 %29.95 in10.0 miNorth (10°)10.4 mph17.3 mphOvercast
6:35 PM52.9 °F48.7 °F86 %29.94 in10.0 miNorth (10°)9.2 mphOvercast
6:55 PM52.7 °F48.6 °F86 %29.94 in10.0 miNNE (30°)12.7 mph17.3 mphOvercast
7:15 PM52.3 °F47.8 °F85 %29.96 in10.0 miNorth (360°)11.5 mph17.3 mphOvercast
7:35 PM52.2 °F48.2 °F86 %29.99 in10.0 miNorth (10°)3.5 mphOvercast
7:55 PM52.2 °F47.8 °F85 %30.03 in10.0 miNorth (360°)9.2 mphOvercast
8:15 PM52.2 °F48.4 °F87 %30.06 in10.0 miNNW (330°)3.5 mphOvercast
8:35 PM51.6 °F47.8 °F87 %30.06 in10.0 miNorth (10°)9.2 mphRainLight Rain
8:55 PM51.1 °F47.8 °F89 %30.06 in10.0 miCalmRainRain
9:15 PM50.9 °F48.2 °F90 %30.05 in10.0 miNorth (10°)5.8 mph0.01 inRainRain
9:35 PM50.5 °F48.2 °F92 %30.08 in10.0 miCalm0.01 inOvercast
9:55 PM50.4 °F48.2 °F92 %30.07 in10.0 miCalm0.02 inRainLight Rain
10:15 PM50.4 °F48.4 °F93 %30.01 in10.0 miNE (50°)15.0 mphLight Drizzle
10:35 PM50.4 °F48.4 °F93 %30.07 in10.0 miCalm0.01 inOvercast
10:55 PM50.2 °F48.0 °F92 %30.10 in10.0 miWNW (300°)6.9 mph16.1 mph0.01 inRainLight Rain
11:15 PM50.0 °F47.5 °F91 %30.07 in10.0 miCalmRainLight Rain
11:35 PM49.6 °F47.3 °F92 %30.07 in10.0 miNorth (350°)5.8 mphRainRain
11:55 PM49.5 °F47.3 °F92 %30.07 in10.0 miCalmOvercast
Hourly data recorded from KORG, located miles away from Mauriceville, Texas







STORIES FROM OUR PARTNERS